sat.trackr.live / text

‹ back to catalog

STARLINK-32710

NORAD 62604 · 2025-008T

PAYLOAD ACTIVE UNKNOWN

§ Identity

Operator
Country
US
Launch date
2025-01-13
Launch site
AFETR
Launch vehicle
Mass (kg)
RCS (m²)

Purposes: comms

External: N2YO · Heavens-Above · Gunter

§ Orbital elements

Epoch: 2026-09-21T08:39:59.503968Z

Period
94.27 min
Inclination
43.0035°
Eccentricity
0.0001741
Mean motion
15.27590829 rev/d
Perigee alt
481.8 km
Apogee alt
484.2 km
Semi-major
6,861.2 km
B*
3.4582e-4
RAAN
252.5404°
Arg perigee
275.9206°
Mean anomaly
84.1447°
Rev number
9,549

§ Raw data

STARLINK-327101 62604U 25008T   26264.36110537  .00009269  00000+0  34582-3 0  99992 62604  43.0035 252.5404 0001741 275.9206  84.1447 15.27590829 95494

JSON: /api/v1/satellites/62604 · /tle

For live sub-satellite position, see the globe view (requires WebGL).

§ Visibility from observer

Set your observer location to see the next 7 days of passes ≥ 10°. The values pass through the URL so the page stays shareable.

No JS? Fill the form by hand. The geolocation button needs JavaScript.